Philip, SD

3:02 PM MDT on September 19, 2017 (GMT -0600)
Philip

Weather History for KPHP - March, 2012

Change the Weather History Date:

Friday, March 9, 2012

  Actual Average Record
Temperature  
Mean Temperature 45 °F 32 °F  
Max Temperature 72 °F 45 °F 74 °F (2014)
Min Temperature 17 °F 19 °F -9 °F (1951)
Degree Days  
Heating Degree Days 20 33  
Month to date heating degree days 250 309  
Since 1 July heating degree days 4956 5674  
Cooling Degree Days 0 0  
Month to date cooling degree days 0 0  
Year to date cooling degree days 0 0  
Moisture  
Dew Point 18 °F    
Average Humidity 51    
Maximum Humidity 91    
Minimum Humidity 10    
Precipitation  
Precipitation 0.00 in 0.04 in 0.46 in (1992)
Month to date precipitation 0.03 0.36  
Year to date precipitation 0.75 1.14  
Sea Level Pressure  
Sea Level Pressure 30.18 in    
Wind  
Wind Speed 8 mph (SW)    
Max Wind Speed 16 mph    
Max Gust Speed 21 mph    
Visibility 10 miles    
Events      
T = Trace of Precipitation, MM = Missing Value Source: NWS Daily Summary

Daily Weather History Graph

Daily Weather History Graph

Search for Another Location

Airport or City:

Trip Planner

Search our weather history database for the weather conditions in past years. The results will help you decide how hot, cold, wet, or windy it might be!

Date:

Astronomy

Mar. 09, 2012 Rise Set
Actual Time 6:08 AM MST 5:45 PM MST
Civil Twilight 5:39 AM MST 6:14 PM MST
Nautical Twilight 5:06 AM MST 6:48 PM MST
Astronomical Twilight 4:32 AM MST 7:21 PM MST
Moon 7:54 PM MST (3/9) 6:23 AM MST (3/9)
Length of Visible Light 12h 34m
Length of Day
11h 37m
Full, 97% of the Moon is Illuminated
Mar 9
Full
Mar 14
Last Quarter
Mar 22
New
Mar 30
First Quarter
Apr 6
Full

Hourly Weather History & Observations

Time (MST) Temp. Windchill Dew Point Humidity Pressure Visibility Wind Dir Wind Speed Gust Speed Precip Events Conditions
12:55 AM 25.0 °F 20.7 °F 17.1 °F 72% 30.44 in 10.0 mi East 3.5 mph - N/A   Clear
1:55 AM 21.9 °F 13.4 °F 16.0 °F 78% 30.42 in 10.0 mi East 6.9 mph - N/A   Clear
2:55 AM 23.0 °F 18.4 °F 19.0 °F 85% 30.40 in 10.0 mi ESE 3.5 mph - N/A   Clear
3:55 AM 21.9 °F - 17.1 °F 82% 30.39 in 10.0 mi Calm Calm - N/A   Clear
4:55 AM 21.0 °F 16.2 °F 17.1 °F 85% 30.37 in 10.0 mi East 3.5 mph - N/A   Clear
5:55 AM 17.1 °F 11.7 °F 14.0 °F 88% 30.37 in 10.0 mi West 3.5 mph - N/A   Clear
6:55 AM 19.9 °F - 17.1 °F 89% 30.37 in 10.0 mi Calm Calm - N/A   Clear
7:55 AM 30.0 °F 26.5 °F 21.9 °F 72% 30.34 in 10.0 mi West 3.5 mph - N/A   Clear
8:55 AM 43.0 °F 38.2 °F 25.0 °F 49% 30.31 in 10.0 mi West 8.1 mph - N/A   Clear
9:55 AM 55.9 °F - 23.0 °F 28% 30.25 in 10.0 mi WSW 12.7 mph - N/A   Clear
10:55 AM 62.1 °F - 21.9 °F 21% 30.22 in 10.0 mi SW 13.8 mph - N/A   Clear
11:55 AM 66.0 °F - 19.0 °F 17% 30.19 in 10.0 mi West 11.5 mph - N/A   Clear
12:55 PM 66.9 °F - 16.0 °F 14% 30.15 in 10.0 mi SW 6.9 mph - N/A   Clear
1:55 PM 69.1 °F - 15.1 °F 13% 30.11 in 10.0 mi WSW 11.5 mph - N/A   Clear
2:55 PM 69.1 °F - 12.9 °F 11% 30.08 in 10.0 mi SW 15.0 mph - N/A   Clear
3:55 PM 71.1 °F - 12.9 °F 11% 30.04 in 10.0 mi SW 12.7 mph - N/A   Clear
4:55 PM 68.0 °F - 15.1 °F 13% 30.02 in 10.0 mi SSW 9.2 mph - N/A   Clear
5:55 PM 63.0 °F - 15.1 °F 16% 30.02 in 10.0 mi SW 9.2 mph - N/A   Clear
6:55 PM 57.0 °F - 17.1 °F 21% 30.01 in 10.0 mi SW 8.1 mph - N/A   Clear
7:55 PM 54.0 °F - 18.0 °F 24% 29.99 in 10.0 mi WSW 6.9 mph - N/A   Clear
8:55 PM 50.0 °F - 19.0 °F 29% 29.97 in 10.0 mi West 10.4 mph - N/A   Clear
9:55 PM 45.0 °F 40.6 °F 19.0 °F 36% 29.96 in 10.0 mi West 8.1 mph - N/A   Clear
10:55 PM 46.0 °F 41.4 °F 19.0 °F 34% 29.94 in 10.0 mi WSW 9.2 mph - N/A   Clear
11:55 PM 48.0 °F - 19.0 °F 32% 29.92 in 10.0 mi West 12.7 mph - N/A   Clear